{"data":{"norad_id":40333,"epoch":"2026-09-20T03:59:03.866208Z","epoch_age_seconds":43213,"freshness":"FRESH","line1":"1 40333U 14078B   26263.16601697  .00000000  00000+0  00000+0 0  9996","line2":"2 40333   0.0173 131.4761 0000921 331.4558 216.6507  1.00268348 42993","mean_motion":1.00268348,"eccentricity":9.21e-5,"inclination_deg":0.0173,"raan_deg":131.4761,"arg_perigee_deg":331.4558,"mean_anomaly_deg":216.6507,"bstar":0,"rev_number":4299,"period_min":1436.1461305815,"perigee_km":35783.675044024,"apogee_km":35791.441965136,"semimajor_km":42165.69550458,"source":"CELESTRAK","updated_at":"2026-09-20T09:00:35.521533Z"}}